星链-32175 (STARLINK-32175)

导读 | 豆包AI

STARLINK-32175是美国SpaceX公司星链(Starlink)低轨宽带通信星座的成员卫星,于2024年8月2日发射升空。它属于星链量产型卫星,采用平板设计搭配太阳电池阵,搭载Ku/Ka波段通信载荷,配备氪工质霍尔推进器,具备自主避撞能力,设计寿命5-7年,服役期满后会脱轨坠入大气层烧毁,主要服务全球宽带互联网接入业务。

基本信息
目录编号:
60339
目录名称:
STARLINK-32175
国际标识:
2024-136L
轨道中心:
EARTH
卫星名称:
星链-32175 (STARLINK-32175)
卫星全名:
星链-32175 (STARLINK-32175)
卫星状态:
在轨 (已飞行590 天)
发射日期:
2024-08-02 UTC
国别 :
美国 (US)
星等 :
--
轨道信息
数据来源 国际轨道数据 AOE轨道数据
星历时间 2026-03-15T13:43:07+0800
9小时前
查看轨道信息
2026-03-15T11:00:00+0800
11小时前
查看轨道信息
半长轴 6853.392km 6853.346km
偏心率 0.0001275 0.0000645
轨道倾角 53.161° 53.162°
近地点辐角 134.815° 55.675°
升交点赤经 49.918° 50.446°
平近点角 225.295° 40.154°
近地点 474.381km 474.766km
远地点 476.129km 475.652km
周期 94.106分钟 94.105分钟
每日圈数 15.301868 15.302021
详细信息
卫星平台:
Starlink v2.0 mini
运营商:
太空探索技术公司
运营商所在国:
美国
制造商(研发单位):
太空探索技术公司
制造商所在国:
美国
使用方式:
暂无
卫星简介
星链(Starlink)计划是由太空探索技术公司(SpaceX)提出的一个巨型低轨卫星互联网星座项目,计划在2019年至2024年间在太空搭建由约1.2万颗卫星组成的“星链”网络,其中1584颗将部署在地球上空550千米处的近地轨道,并从2020年开始工作。该卫星仍在工作。
2D轨道图
3D轨道图
轨道高度分析图
轨道倾角分析图
轨道综合分析图
查看轨道综合分析图